TimeMDT,TemperatureF,Dew PointF,Humidity,Sea Level PressureIn,VisibilityMPH,Wind Direction,Wind SpeedMPH,Gust SpeedMPH,PrecipitationIn,Events,Conditions,WindDirDegrees,DateUTC
12:53 AM,78.1,46.9,33,29.75,10.0,SSE,9.2,-,N/A,,Clear,160,2013-07-11 06:53:00
1:53 AM,78.1,46.0,32,29.72,10.0,SSE,10.4,-,N/A,,Partly Cloudy,160,2013-07-11 07:53:00
2:53 AM,75.9,46.9,36,29.71,10.0,SSW,6.9,-,N/A,,Clear,210,2013-07-11 08:53:00
3:53 AM,75.0,46.9,37,29.69,10.0,SE,6.9,-,N/A,,Clear,140,2013-07-11 09:53:00
4:53 AM,75.0,46.0,36,29.68,10.0,SE,4.6,-,N/A,,Partly Cloudy,140,2013-07-11 10:53:00
5:53 AM,73.9,46.0,37,29.67,10.0,Calm,Calm,-,N/A,,Partly Cloudy,0,2013-07-11 11:53:00
6:53 AM,75.0,48.0,38,29.67,10.0,NW,4.6,-,N/A,,Scattered Clouds,320,2013-07-11 12:53:00
7:53 AM,77.0,48.0,36,29.66,10.0,WSW,17.3,-,N/A,,Scattered Clouds,250,2013-07-11 13:53:00
8:53 AM,80.1,53.1,39,29.67,10.0,SW,10.4,-,N/A,,Scattered Clouds,230,2013-07-11 14:53:00
9:53 AM,87.1,48.9,27,29.65,10.0,WSW,15.0,-,N/A,,Scattered Clouds,250,2013-07-11 15:53:00
10:53 AM,91.9,48.9,23,29.65,10.0,WSW,18.4,-,N/A,,Partly Cloudy,250,2013-07-11 16:53:00
11:53 AM,91.9,44.1,19,29.66,10.0,WSW,12.7,-,N/A,,Scattered Clouds,250,2013-07-11 17:53:00
12:53 PM,91.9,44.1,19,29.66,10.0,WSW,10.4,-,N/A,,Scattered Clouds,250,2013-07-11 18:53:00
1:53 PM,95.0,41.0,15,29.64,10.0,West,8.1,-,N/A,,Scattered Clouds,270,2013-07-11 19:53:00
2:53 PM,93.9,42.1,17,29.63,10.0,WNW,9.2,-,N/A,,Scattered Clouds,300,2013-07-11 20:53:00
3:53 PM,93.0,46.9,20,29.64,10.0,NNE,8.1,-,N/A,,Mostly Cloudy,20,2013-07-11 21:53:00
4:53 PM,89.1,46.0,22,29.68,10.0,North,23.0,27.6,N/A,,Mostly Cloudy,350,2013-07-11 22:53:00
5:53 PM,86.0,43.0,22,29.68,10.0,NNW,17.3,-,N/A,,Mostly Cloudy,330,2013-07-11 23:53:00
6:53 PM,84.9,44.1,24,29.65,10.0,North,12.7,-,N/A,,Scattered Clouds,350,2013-07-12 00:53:00
7:53 PM,82.0,46.0,28,29.68,10.0,NW,13.8,-,N/A,,Scattered Clouds,320,2013-07-12 01:53:00
8:53 PM,81.0,46.0,29,29.68,10.0,NW,20.7,25.3,N/A,,Mostly Cloudy,310,2013-07-12 02:53:00
9:53 PM,75.0,52.0,44,29.72,10.0,WNW,12.7,-,0.00,Rain,Light Rain,300,2013-07-12 03:53:00
10:53 PM,73.9,55.0,52,29.74,10.0,WSW,9.2,-,0.00,Rain,Light Rain,240,2013-07-12 04:53:00
11:53 PM,73.0,55.9,55,29.76,10.0,South,6.9,-,0.00,,Overcast,170,2013-07-12 05:53:00